Location: Cypress Hills Dark-Sky Preserve - CHICO
(49.6176°N, 110.2634°W)
Time: 11:09:01
(UTC-07:00)

Amateur Radio Satellites - All Passes

Search period start: 12 February 2016 10:39
Search period end: 13 February 2016 10:39
Location: Cypress Hills Dark-Sky Preserve - CHICO, 49.6176°N, 110.2634°W

Satellite Date Start Highest point End Downlink Frequencies (MHz)
Time Altitude Azimuth
UKube-1 12 Feb 10:39:31 10:40:48 11° 87° (E) 10:42:04 .
AISAT 12 Feb 10:41:15 10:43:33 14° 88° (E) 10:45:51 437.250
AAUSAT CUBESAT 2 12 Feb 10:45:01 10:47:51 18° 299° (WNW) 10:50:41 437.432
BUGSAT 1 12 Feb 10:47:58 10:52:00 48° 70° (ENE) 10:56:00 437.445
UWE-3 12 Feb 10:50:55 10:54:32 29° 294° (WNW) 10:58:13 435.000/436.395/437.385
CUBEBUG 1 12 Feb 10:52:38 10:55:09 15° 89° (E) 10:57:38 437.445
DX 1 12 Feb 10:55:04 10:58:10 19° 91° (E) 11:01:15 434.975-435.025
HO-68 12 Feb 10:55:40 11:01:21 26° 309° (NW) 11:07:02 435.675
CUBEBUG 2 12 Feb 10:56:31 10:59:36 20° 298° (WNW) 11:02:43 437.445
POLYITAN 1 12 Feb 11:01:07 11:05:19 65° 258° (WSW) 11:09:31 437.675
QB50P2 12 Feb 11:01:37 11:05:50 62° 259° (WSW) 11:10:02 145.880/145.840
ESTCUBE 1 12 Feb 11:13:01 11:17:05 31° 95° (E) 11:21:06 437.505/2401.250
AO-85 12 Feb 11:13:16 11:18:40 62° 315° (NW) 11:24:09 145.980
50 SAT 12 Feb 11:15:04 11:18:31 32° 97° (E) 11:21:57 437.505
SO-50 12 Feb 11:19:20 11:23:33 28° 31° (NNE) 11:27:41 436.795
CUSAT 1 12 Feb 11:20:01 11:25:01 25° 58° (ENE) 11:29:01 437.405
PCSat 12 Feb 11:23:18 11:28:44 76° 307° (NW) 11:34:12 145.827
UNISAT 6 12 Feb 11:24:58 11:26:45 12° 273° (W) 11:28:32 437.425
JAS-2 12 Feb 11:25:34 11:31:07 24° 56° (NE) 11:36:14 435.910
AO-7 12 Feb 11:27:13 11:29:14 11° 22° (NNE) 11:31:15 29.400- 29.500
POPSAT HIP 1 12 Feb 11:31:08 11:35:00 33° 264° (W) 11:38:51 437.405
Cosmos 2499 12 Feb 11:32:14 11:40:21 39° 294° (WNW) 11:48:32 435.465 / 435.565
HUMSAT D 12 Feb 11:32:46 11:36:43 42° 291° (WNW) 11:40:42 437.325/437.525
NANOSAT C BR1 12 Feb 11:34:06 11:37:53 32° 264° (W) 11:41:43 145.865
DUCHIFAT 1 12 Feb 11:34:12 11:38:01 33° 264° (W) 11:41:51 145.980
DELFI C3 12 Feb 11:36:41 11:39:34 19° 298° (WNW) 11:42:26 145.870
ZACube-1 12 Feb 11:39:31 11:41:58 15° 301° (WNW) 11:44:27 437.345
QB50P1 12 Feb 11:43:56 11:47:28 25° 266° (W) 11:51:01 145.935-145.965
FUNcube-1 12 Feb 11:47:20 11:49:28 14° 302° (WNW) 11:51:37 145.935
VELOX 1 12 Feb 11:58:55 12:03:22 73° 103° (ESE) 12:07:45 145.980
Oscar 19 12 Feb 12:00:42 12:05:28 38° 65° (ENE) 12:10:13 437.125/150
AIST 1 12 Feb 12:08:12 12:11:11 18° 295° (WNW) 12:14:12
UKube-1 12 Feb 12:13:10 12:17:32 90° 232° (SW) 12:21:51 .
AISAT 12 Feb 12:16:10 12:20:36 75° 287° (WNW) 12:24:59 437.250
DANDE 12 Feb 12:16:15 12:23:10 45° 66° (ENE) 12:28:30 436.750
GONETS M04 12 Feb 12:16:28 12:20:40 14° 316° (NW) 12:24:55
TISAT 1 12 Feb 12:16:44 12:19:14 15° 90° (E) 12:21:42 437.305
SPROUT 12 Feb 12:17:38 12:21:39 38° 97° (E) 12:25:37 437.525
BUGSAT 1 12 Feb 12:24:36 12:27:39 19° 268° (W) 12:30:41 437.445
RS-15 12 Feb 12:25:28 12:36:45 89° 306° (NW) 12:48:44 29.354- 29.394
CUBEBUG 1 12 Feb 12:27:34 12:31:56 69° 287° (WNW) 12:36:15 437.445
DX 1 12 Feb 12:30:26 12:34:42 54° 290° (WNW) 12:38:56 434.975-435.025
50 SAT 12 Feb 12:49:18 12:52:27 25° 294° (WNW) 12:55:36 437.505
ESTCUBE 1 12 Feb 12:49:47 12:53:56 35° 294° (WNW) 12:58:03 437.505/2401.250
Gurwin Techsat 1B 12 Feb 12:54:31 12:59:33 45° 66° (ENE) 13:04:36 435.225
YUBILEINY 12 Feb 12:54:48 13:02:42 34° 63° (ENE) 13:10:30 435.215
AO-85 12 Feb 12:55:58 13:00:15 23° 337° (NNW) 13:04:31 145.980
SO-50 12 Feb 12:59:41 13:04:33 74° 233° (SW) 13:09:15 436.795
CUSAT 1 12 Feb 13:02:06 13:07:52 53° 267° (W) 13:12:13 437.405
JAS-2 12 Feb 13:08:02 13:15:33 88° 253° (WSW) 13:22:18 435.910
PCSat 12 Feb 13:08:49 13:13:01 22° 330° (NNW) 13:17:16 145.827
Cosmos 2491 12 Feb 13:11:33 13:16:08 16° 71° (ENE) 13:20:43 435.465 / 435.565
AO-7 12 Feb 13:12:27 13:19:20 30° 48° (NE) 13:26:12 29.400- 29.500
ITAMSAT 1 12 Feb 13:15:50 13:20:37 39° 65° (ENE) 13:25:26 435.822/435.867
Cosmos 2499 12 Feb 13:34:22 13:36:39 11° 321° (NW) 13:38:56 435.465 / 435.565
VELOX 1 12 Feb 13:36:33 13:39:19 17° 302° (WNW) 13:42:06 145.980
SWISSCUBE 12 Feb 13:38:18 13:42:11 24° 93° (E) 13:46:02 437.505
Oscar 19 12 Feb 13:40:06 13:44:49 35° 264° (W) 13:49:34 437.125/150
UKube-1 12 Feb 13:50:51 13:52:56 13° 304° (NW) 13:55:01 .
TISAT 1 12 Feb 13:51:12 13:55:20 62° 288° (WNW) 13:59:26 437.305
SPROUT 12 Feb 13:53:56 13:57:29 26° 296° (WNW) 14:01:01 437.525
AISAT 12 Feb 13:54:48 13:56:20 12° 306° (NW) 13:57:50 437.250
DANDE 12 Feb 13:59:37 14:06:00 37° 273° (W) 14:10:59 436.750
CUBEBUG 1 12 Feb 14:06:30 14:07:25 11° 307° (NW) 14:08:19 437.445
HORYU 2 12 Feb 14:10:26 14:12:14 12° 54° (NE) 14:14:02 437.375
ITUPSAT 1 12 Feb 14:16:15 14:20:54 45° 99° (E) 14:25:31 437.325
BEESAT 12 Feb 14:22:43 14:27:25 53° 100° (E) 14:32:07 436.000
Cosmos 2504 12 Feb 14:33:00 14:40:31 31° 61° (ENE) 14:47:37 435.465 / 435.565
Gurwin Techsat 1B 12 Feb 14:34:59 14:39:40 31° 266° (W) 14:44:22 435.225
AO-85 12 Feb 14:39:25 14:42:42 16° 1° (N) 14:45:56 145.980
RS-15 12 Feb 14:39:55 14:50:49 45° 339° (NNW) 15:02:17 29.354- 29.394
SO-50 12 Feb 14:42:22 14:44:10 12° 253° (WSW) 14:45:58 436.795
ISS 12 Feb 14:51:09 14:53:16 16° 139° (SE) 14:55:24 145.825
YUBILEINY 12 Feb 14:51:28 15:00:14 69° 266° (W) 15:08:56 435.215
ITAMSAT 1 12 Feb 14:55:24 15:00:08 35° 264° (W) 15:04:55 435.822/435.867
JAS-2 12 Feb 14:56:07 15:01:19 20° 272° (W) 15:06:12 435.910
PCSat 12 Feb 14:56:17 14:58:33 12° 356° (N) 15:00:50 145.827
M-CUBED/EXP-1 PRIME 12 Feb 14:57:30 15:00:54 50° 66° (ENE) 15:04:09 437.505
Cosmos 2491 12 Feb 15:02:38 15:11:13 67° 93° (E) 15:19:51 435.465 / 435.565
AO-7 12 Feb 15:02:52 15:11:16 87° 248° (WSW) 15:19:42 29.400- 29.500
AUBIESAT-1 12 Feb 15:04:34 15:07:58 50° 65° (ENE) 15:11:13 437.475
KKS-1 12 Feb 15:14:35 15:18:23 27° 95° (E) 15:22:10 437.445
SWISSCUBE 12 Feb 15:15:36 15:20:16 50° 291° (WNW) 15:24:54 437.505
MOZHAYETS 4 12 Feb 15:30:08 15:33:26 19° 90° (E) 15:36:42
Cubesat XI-IV 12 Feb 15:34:22 15:35:38 11° 48° (NE) 15:36:54 437.490
O/OREOS (USA 219) 12 Feb 15:35:04 15:38:16 18° 44° (NE) 15:41:27 437.305
HORYU 2 12 Feb 15:43:40 15:48:05 80° 75° (ENE) 15:52:32 437.375
ITUPSAT 1 12 Feb 15:54:30 15:58:33 27° 298° (WNW) 16:02:35 437.325
BEESAT 12 Feb 16:01:07 16:04:56 24° 299° (WNW) 16:08:44 436.000
BEESAT 2 12 Feb 16:08:01 16:09:54 13° 111° (ESE) 16:11:47 435.950
AO-85 12 Feb 16:20:45 16:25:06 24° 26° (NNE) 16:29:15 145.980
STARS 12 Feb 16:25:26 16:29:49 75° 104° (ESE) 16:34:11 437.465
ISS 12 Feb 16:26:03 16:29:17 70° 157° (SSE) 16:32:31 145.825
Cosmos 2504 12 Feb 16:26:10 16:34:50 74° 265° (W) 16:42:52 435.465 / 435.565
M-CUBED/EXP-1 PRIME 12 Feb 16:34:07 16:35:49 13° 262° (W) 16:37:30 437.505
BRITE-PL 12 Feb 16:36:01 16:39:46 19° 58° (ENE) 16:43:25 437.365/2234.400
PCSat 12 Feb 16:40:46 16:44:18 17° 22° (NNE) 16:47:49 145.827
AUBIESAT-1 12 Feb 16:41:05 16:42:49 13° 262° (W) 16:44:32 437.475
YUBILEINY 12 Feb 16:50:24 16:55:18 16° 289° (WNW) 17:00:12 435.215
KKS-1 12 Feb 16:50:58 16:55:04 38° 293° (WNW) 16:59:09 437.445
CUTE-I 12 Feb 16:54:56 16:59:53 41° 65° (ENE) 17:04:53 437.470
RS-15 12 Feb 16:55:50 17:06:49 41° 12° (NNE) 17:18:12 29.354- 29.394
AO-7 12 Feb 16:59:02 17:05:13 22° 271° (W) 17:11:26 29.400- 29.500
Cosmos 2491 12 Feb 17:01:02 17:08:45 34° 297° (WNW) 17:16:32 435.465 / 435.565
MOZHAYETS 4 12 Feb 17:06:24 17:11:00 60° 288° (WNW) 17:15:34
Cubesat XI-IV 12 Feb 17:09:24 17:14:33 52° 68° (ENE) 17:19:46 437.490
BEESAT 3 12 Feb 17:13:19 17:17:18 76° 126° (SE) 17:21:18 437.485
O/OREOS (USA 219) 12 Feb 17:13:40 17:18:17 83° 247° (WSW) 17:22:53 437.305
LilacSat-2 12 Feb 17:15:25 17:18:58 40° 70° (ENE) 17:22:33 437.200
HORYU 2 12 Feb 17:23:09 17:25:15 13° 272° (W) 17:27:21 437.375
GOMX 1 12 Feb 17:25:30 17:29:37 24° 62° (ENE) 17:33:34 467.674
BEESAT 2 12 Feb 17:43:10 17:47:12 85° 310° (NW) 17:51:15 435.950
HO-68 12 Feb 17:54:18 17:59:58 26° 51° (NE) 18:05:40 435.675
CUBESAT XI-V 12 Feb 17:55:31 18:00:10 54° 100° (E) 18:04:45 437.345
AO-85 12 Feb 18:01:11 18:06:31 76° 48° (NE) 18:11:24 145.980
ISS 12 Feb 18:02:36 18:05:49 58° 357° (N) 18:09:03 145.825
STARS 12 Feb 18:03:03 18:05:41 16° 302° (WNW) 18:08:17 437.465
BRITE-PL 12 Feb 18:11:57 18:17:38 89° 257° (WSW) 18:23:05 437.365/2234.400
STRAND 1 12 Feb 18:15:12 18:17:49 14° 86° (E) 18:20:25 437.568
GONETS M04 12 Feb 18:20:32 18:27:58 29° 60° (ENE) 18:35:23
Cosmos 2504 12 Feb 18:21:25 18:26:35 18° 288° (WNW) 18:31:35 435.465 / 435.565
CUTE 1.7 + AOD 2 12 Feb 18:22:52 18:25:28 16° 59° (ENE) 18:28:05 437.475
PCSat 12 Feb 18:23:46 18:29:03 48° 46° (NE) 18:34:18 145.827
SEEDS 12 Feb 18:24:22 18:26:20 13° 57° (ENE) 18:28:19 437.485
AIST 2 12 Feb 18:25:30 18:29:15 33° 119° (ESE) 18:33:02 435.215
DOVE 4 12 Feb 18:28:03 18:32:41 41° 69° (ENE) 18:37:06 437.250
CUTE-I 12 Feb 18:35:11 18:40:01 35° 264° (W) 18:44:54 437.470
MOZHAYETS 4 12 Feb 18:46:46 18:47:15 10° 308° (NW) 18:47:43
Cubesat XI-IV 12 Feb 18:50:28 18:54:56 27° 267° (W) 18:59:26 437.490
LilacSat-2 12 Feb 18:50:41 18:53:29 19° 268° (W) 18:56:17 437.200
BEESAT 3 12 Feb 18:52:23 18:55:31 21° 328° (NNW) 18:58:39 437.485
O/OREOS (USA 219) 12 Feb 18:55:35 18:56:54 11° 264° (W) 18:58:13 437.305
CINEMA 3 12 Feb 18:59:54 19:03:49 30° 66° (ENE) 19:07:37 145.822/145.860
GOMX 1 12 Feb 19:02:07 19:07:23 60° 259° (W) 19:12:22 467.674
CANX-2 12 Feb 19:06:47 19:10:47 43° 69° (ENE) 19:14:49 2200.000
RS-15 12 Feb 19:09:40 19:21:44 71° 43° (NE) 19:34:05 29.354- 29.394
BEESAT 2 12 Feb 19:22:45 19:25:41 19° 330° (NNW) 19:28:38 435.950
Cosmos 2499 12 Feb 19:24:53 19:32:11 30° 61° (ENE) 19:39:00 435.465 / 435.565
ZACube-1 12 Feb 19:28:27 19:30:22 13° 57° (ENE) 19:32:16 437.345
CUBESAT XI-V 12 Feb 19:33:34 19:37:13 23° 299° (WNW) 19:40:52 437.345
FUNcube-1 12 Feb 19:35:25 19:37:40 14° 59° (ENE) 19:39:54 145.935
COMPASS 1 12 Feb 19:37:27 19:41:26 45° 70° (ENE) 19:45:27 437.405
ISS 12 Feb 19:39:11 19:42:26 86° 10° (N) 19:45:42 145.825
HO-68 12 Feb 19:39:45 19:46:56 85° 251° (WSW) 19:54:13 435.675
AO-85 12 Feb 19:42:43 19:46:25 20° 250° (WSW) 19:49:55 145.980
PRISM 12 Feb 19:42:52 19:46:21 25° 94° (E) 19:49:49 437.425
STRAND 1 12 Feb 19:52:33 19:57:45 88° 105° (ESE) 20:02:56 437.568
BRITE-PL 12 Feb 19:53:26 19:56:45 16° 273° (W) 20:00:02 437.365/2234.400
CUTE 1.7 + AOD 2 12 Feb 19:56:38 20:00:50 68° 259° (WSW) 20:05:05 437.475
SEEDS 12 Feb 19:57:14 20:01:25 86° 251° (WSW) 20:05:41 437.485
Oscar 11 12 Feb 20:01:34 20:05:23 32° 66° (ENE) 20:09:14 145.826/435.025
AAUSAT CUBESAT 2 12 Feb 20:02:50 20:06:57 69° 73° (ENE) 20:11:07 437.432
AIST 2 12 Feb 20:03:48 20:07:44 38° 319° (NW) 20:11:40 435.215
DOVE 4 12 Feb 20:06:13 20:10:30 29° 266° (W) 20:14:37 437.250
PCSat 12 Feb 20:07:26 20:12:22 36° 246° (WSW) 20:17:15 145.827
UWE-3 12 Feb 20:15:27 20:19:27 45° 71° (ENE) 20:23:28 435.000/436.395/437.385
GONETS M04 12 Feb 20:17:01 20:25:51 80° 263° (W) 20:34:40
CUBEBUG 2 12 Feb 20:21:23 20:25:37 71° 74° (ENE) 20:29:48 437.445
AIST 1 12 Feb 20:31:45 20:35:20 24° 68° (ENE) 20:38:52
CINEMA 3 12 Feb 20:36:50 20:40:56 33° 263° (W) 20:44:55 145.822/145.860
CANX-2 12 Feb 20:43:33 20:46:51 22° 268° (W) 20:50:11 2200.000
DELFI C3 12 Feb 20:51:15 20:55:09 53° 72° (ENE) 20:59:04 145.870
HUMSAT D 12 Feb 20:53:13 20:56:39 27° 65° (ENE) 21:00:06 437.325/437.525
ZACube-1 12 Feb 21:01:53 21:06:05 85° 256° (WSW) 21:10:15 437.345
FUNcube-1 12 Feb 21:09:15 21:13:25 75° 257° (WSW) 21:17:34 145.935
COMPASS 1 12 Feb 21:14:09 21:17:16 20° 269° (W) 21:20:25 437.405
ISS 12 Feb 21:15:54 21:18:38 25° 216° (SW) 21:21:20 145.825
Cosmos 2499 12 Feb 21:17:47 21:26:13 73° 265° (W) 21:33:57 435.465 / 435.565
PRISM 12 Feb 21:17:56 21:21:48 37° 293° (WNW) 21:25:39 437.425
RS-15 12 Feb 21:22:34 21:33:49 47° 249° (WSW) 21:45:14 29.354- 29.394
VELOX 1 12 Feb 21:25:59 21:28:45 16° 58° (ENE) 21:31:31 145.980
HO-68 12 Feb 21:30:51 21:35:42 19° 273° (W) 21:40:38 435.675
STRAND 1 12 Feb 21:32:57 21:36:17 18° 305° (NW) 21:39:36 437.568
UNISAT 6 12 Feb 21:34:10 21:35:53 12° 87° (E) 21:37:37 437.425
UKube-1 12 Feb 21:37:25 21:40:24 19° 59° (ENE) 21:43:25 .
Oscar 11 12 Feb 21:37:42 21:41:31 31° 265° (W) 21:45:22 145.826/435.025
AAUSAT CUBESAT 2 12 Feb 21:40:48 21:42:57 14° 272° (W) 21:45:06 437.432
AISAT 12 Feb 21:42:22 21:45:52 23° 62° (ENE) 21:49:22 437.250
AIST 2 12 Feb 21:45:18 21:47:21 13° 341° (NNW) 21:49:24 435.215
CUBEBUG 1 12 Feb 21:52:24 21:55:52 23° 62° (ENE) 21:59:20 437.445
UWE-3 12 Feb 21:53:04 21:56:11 20° 268° (W) 21:59:18 435.000/436.395/437.385
DX 1 12 Feb 21:54:25 21:58:13 29° 64° (ENE) 22:02:00 434.975-435.025
50 SAT 12 Feb 21:59:30 22:02:46 30° 67° (ENE) 22:06:04 437.505
CUBEBUG 2 12 Feb 22:00:39 22:02:45 13° 272° (W) 22:04:52 437.445
AIST 1 12 Feb 22:09:02 22:13:05 39° 268° (W) 22:17:06
BEESAT 3 12 Feb 22:13:02 22:14:18 11° 16° (NNE) 22:15:33 437.485
GONETS M04 12 Feb 22:15:28 22:21:15 20° 286° (WNW) 22:27:03
ESTCUBE 1 12 Feb 22:16:29 22:20:50 47° 69° (ENE) 22:25:13 437.505/2401.250
ANTELSAT 12 Feb 22:17:27 22:21:21 31° 96° (E) 22:25:17 437.575/2403.000
TIGRISAT 12 Feb 22:23:08 22:27:05 33° 97° (E) 22:31:05 435.000
DELFI C3 12 Feb 22:27:52 22:30:24 16° 270° (W) 22:32:58 145.870
HUMSAT D 12 Feb 22:28:30 22:32:13 34° 263° (W) 22:35:58 437.325/437.525
POLYITAN 1 12 Feb 22:42:56 22:45:26 15° 90° (E) 22:47:54 437.675
BEESAT 2 12 Feb 22:43:04 22:44:49 12° 18° (NNE) 22:46:35 435.950
QB50P2 12 Feb 22:43:20 22:45:55 16° 90° (E) 22:48:31 145.880/145.840
VELOX 1 12 Feb 23:00:14 23:04:42 76° 257° (WSW) 23:09:11 145.980
UNISAT 6 12 Feb 23:08:50 23:13:12 85° 285° (WNW) 23:17:38 437.425
POPSAT HIP 1 12 Feb 23:11:27 23:15:05 28° 95° (E) 23:18:42 437.405
UKube-1 12 Feb 23:11:46 23:16:04 61° 258° (WSW) 23:20:24 .
TISAT 1 12 Feb 23:12:27 23:15:40 21° 62° (ENE) 23:18:53 437.305
Cosmos 2499 12 Feb 23:12:53 23:17:42 17° 288° (WNW) 23:22:19 435.465 / 435.565
Cosmos 2491 12 Feb 23:12:57 23:15:46 12° 40° (NE) 23:18:36 435.465 / 435.565
DUCHIFAT 1 12 Feb 23:13:53 23:17:30 27° 95° (E) 23:21:05 145.980
NANOSAT C BR1 12 Feb 23:13:58 23:17:38 29° 95° (E) 23:21:17 145.865
SPROUT 12 Feb 23:15:17 23:19:27 51° 71° (ENE) 23:23:38 437.525
AISAT 12 Feb 23:17:45 23:22:06 49° 260° (W) 23:26:27 437.250
QB50P1 12 Feb 23:23:35 23:27:30 36° 97° (E) 23:31:24 145.935-145.965
AIST 2 12 Feb 23:27:09 23:27:39 10° 6° (N) 23:28:11 435.215
CUBEBUG 1 12 Feb 23:27:36 23:31:54 48° 261° (W) 23:36:14 437.445
DX 1 12 Feb 23:30:17 23:34:20 35° 263° (W) 23:38:23 434.975-435.025
50 SAT 12 Feb 23:33:43 23:36:49 25° 266° (W) 23:39:57 437.505
BEESAT 3 12 Feb 23:49:42 23:53:16 30° 38° (NE) 23:56:48 437.485
DANDE 12 Feb 23:51:57 23:53:35 11° 69° (ENE) 23:55:13 436.750
ITUPSAT 1 12 Feb 23:52:11 23:54:45 15° 54° (NE) 23:57:21 437.325
ANTELSAT 12 Feb 23:54:11 23:58:05 33° 293° (WNW) 00:02:01 437.575/2403.000
ESTCUBE 1 12 Feb 23:54:18 23:57:53 23° 268° (W) 00:01:31 437.505/2401.250
BEESAT 12 Feb 23:57:56 00:00:52 16° 56° (NE) 00:03:47 436.000
TIGRISAT 12 Feb 23:59:57 00:03:44 30° 294° (WNW) 00:07:35 435.000
BUGSAT 1 13 Feb 00:00:48 00:04:41 43° 99° (E) 00:08:32 437.445
POLYITAN 1 13 Feb 00:17:30 00:21:41 63° 287° (WNW) 00:25:50 437.675
QB50P2 13 Feb 00:17:59 00:22:10 61° 288° (WNW) 00:26:19 145.880/145.840
BEESAT 2 13 Feb 00:20:04 00:23:50 37° 41° (NE) 00:27:33 435.950
CUSAT 1 13 Feb 00:26:02 00:32:43 30° 85° (E) 00:39:06 437.405
TISAT 1 13 Feb 00:47:00 00:51:05 47° 260° (W) 00:55:10 437.305
POPSAT HIP 1 13 Feb 00:47:08 00:50:56 34° 293° (WNW) 00:54:44 437.405
UNISAT 6 13 Feb 00:47:25 00:49:17 13° 304° (NW) 00:51:10 437.425
SWISSCUBE 13 Feb 00:48:43 00:53:13 44° 68° (ENE) 00:57:47 437.505
DUCHIFAT 1 13 Feb 00:49:29 00:53:16 34° 293° (WNW) 00:57:03 145.980
NANOSAT C BR1 13 Feb 00:49:39 00:53:25 33° 294° (WNW) 00:57:10 145.865
SPROUT 13 Feb 00:52:39 00:55:45 19° 269° (W) 00:58:50 437.525
QB50P1 13 Feb 00:59:39 01:03:11 26° 296° (WNW) 01:06:41 145.935-145.965
AIST 2 13 Feb 01:04:36 01:07:44 20° 30° (NNE) 01:10:51 435.215
Cosmos 2491 13 Feb 01:07:26 01:15:41 43° 68° (ENE) 01:23:55 435.465 / 435.565
Gurwin Techsat 1B 13 Feb 01:08:06 01:10:12 12° 85° (E) 01:12:16 435.225
PHONESAT 2.4 13 Feb 01:17:28 01:19:31 16° 172° (S) 01:21:35 2401.200-2431.200
DANDE 13 Feb 01:26:54 01:34:35 46° 90° (E) 01:42:26 436.750
ITUPSAT 1 13 Feb 01:27:06 01:31:53 85° 74° (ENE) 01:36:43 437.325
BEESAT 3 13 Feb 01:27:23 01:31:09 41° 238° (WSW) 01:34:52 437.485
BEESAT 13 Feb 01:33:16 01:38:02 84° 256° (WSW) 01:42:52 436.000
BUGSAT 1 13 Feb 01:36:47 01:39:51 21° 298° (WNW) 01:42:53 437.445
Oscar 19 13 Feb 01:46:30 01:51:36 59° 101° (ESE) 01:56:38 437.125/150
STARS 13 Feb 01:51:54 01:54:38 16° 58° (ENE) 01:57:23 437.465
BEESAT 2 13 Feb 01:58:05 02:01:42 32° 241° (WSW) 02:05:15 435.950
JAS-2 13 Feb 01:58:46 02:04:21 54° 99° (E) 02:09:29 435.910
YUBILEINY 13 Feb 02:02:23 02:09:45 32° 81° (E) 02:17:10 435.215
CUSAT 1 13 Feb 02:06:17 02:14:28 77° 283° (WNW) 02:22:09 437.405
KKS-1 13 Feb 02:16:32 02:20:45 43° 68° (ENE) 02:24:59 437.445
SWISSCUBE 13 Feb 02:27:11 02:31:12 27° 266° (W) 02:35:17 437.505
MOZHAYETS 4 13 Feb 02:36:01 02:39:57 29° 64° (ENE) 02:43:55
AIST 2 13 Feb 02:42:39 02:46:49 89° 42° (NE) 02:50:57 435.215
Gurwin Techsat 1B 13 Feb 02:45:42 02:51:03 77° 104° (ESE) 02:56:23 435.225
PHONESAT 2.4 13 Feb 02:54:03 02:56:04 15° 189° (S) 02:58:05 2401.200-2431.200
AO-7 13 Feb 03:00:21 03:06:50 24° 90° (E) 03:13:14 29.400- 29.500
ITAMSAT 1 13 Feb 03:03:02 03:08:14 60° 102° (ESE) 03:13:25 435.822/435.867
Cosmos 2491 13 Feb 03:04:23 03:12:46 53° 271° (W) 03:21:11 435.465 / 435.565
ITUPSAT 1 13 Feb 03:07:57 03:10:24 14° 273° (W) 03:12:51 437.325
DANDE 13 Feb 03:09:26 03:17:29 54° 290° (WNW) 03:25:41 436.750
BEESAT 13 Feb 03:14:51 03:16:36 12° 274° (W) 03:18:21 436.000
Cosmos 2504 13 Feb 03:18:10 03:24:21 22° 75° (ENE) 03:30:36 435.465 / 435.565
SO-50 13 Feb 03:20:07 03:22:34 14° 109° (ESE) 03:25:02 436.795
STARS 13 Feb 03:26:08 03:30:31 72° 257° (WSW) 03:34:56 437.465
Oscar 19 13 Feb 03:26:31 03:30:34 24° 301° (WNW) 03:34:36 437.125/150
CUBESAT XI-V 13 Feb 03:28:23 03:30:48 14° 55° (NE) 03:33:14 437.345
HORYU 2 13 Feb 03:32:37 03:33:53 11° 87° (E) 03:35:09 437.375
JAS-2 13 Feb 03:44:24 03:49:07 27° 302° (WNW) 03:53:31 435.910
CUSAT 1 13 Feb 03:51:49 03:57:53 23° 303° (WNW) 04:03:37 437.405
KKS-1 13 Feb 03:53:53 03:57:31 24° 266° (W) 04:01:10 437.445
YUBILEINY 13 Feb 03:57:05 04:05:52 71° 284° (WNW) 04:14:44 435.215
M-CUBED/EXP-1 PRIME 13 Feb 04:07:34 04:09:53 17° 100° (E) 04:12:17 437.505
MOZHAYETS 4 13 Feb 04:12:45 04:17:01 38° 263° (W) 04:21:20
AUBIESAT-1 13 Feb 04:14:04 04:16:26 17° 100° (E) 04:18:52 437.475
AIST 2 13 Feb 04:22:50 04:24:41 13° 250° (WSW) 04:26:31 435.215
Gurwin Techsat 1B 13 Feb 04:26:38 04:30:27 20° 303° (WNW) 04:34:16 435.225
ITAMSAT 1 13 Feb 04:43:09 04:47:21 25° 301° (WNW) 04:51:32 435.822/435.867
AO-7 13 Feb 04:52:16 05:00:40 88° 292° (WNW) 05:08:59 29.400- 29.500
DANDE 13 Feb 04:57:21 05:02:27 17° 312° (NW) 05:07:28 436.750
SO-50 13 Feb 04:57:22 05:02:17 79° 128° (SE) 05:07:16 436.795
CUBESAT XI-V 13 Feb 05:02:46 05:07:29 84° 73° (ENE) 05:12:14 437.345
Cosmos 2491 13 Feb 05:05:01 05:07:26 11° 294° (WNW) 05:09:52 435.465 / 435.565
HORYU 2 13 Feb 05:06:40 05:11:09 86° 104° (ESE) 05:15:37 437.375
Cosmos 2504 13 Feb 05:07:42 05:16:26 84° 97° (E) 05:25:24 435.465 / 435.565
CUTE-I 13 Feb 05:10:00 05:11:16 11° 84° (E) 05:12:31 437.470
Cubesat XI-IV 13 Feb 05:23:30 05:26:27 15° 87° (E) 05:29:23 437.490
STRAND 1 13 Feb 05:34:33 05:39:02 32° 63° (ENE) 05:43:33 437.568
M-CUBED/EXP-1 PRIME 13 Feb 05:41:30 05:44:43 40° 295° (WNW) 05:48:05 437.505
AUBIESAT-1 13 Feb 05:47:55 05:51:11 42° 296° (WNW) 05:54:38 437.475
YUBILEINY 13 Feb 05:58:33 06:04:36 20° 309° (NW) 06:10:42 435.215
BRITE-PL 13 Feb 06:13:53 06:17:23 21° 89° (E) 06:20:43 437.365/2234.400
LilacSat-2 13 Feb 06:18:45 06:22:12 33° 96° (E) 06:25:40 437.200
PRISM 13 Feb 06:36:22 06:40:07 33° 66° (ENE) 06:43:55 437.425
SO-50 13 Feb 06:39:05 06:43:20 27° 329° (NNW) 06:47:34 436.795
CUBESAT XI-V 13 Feb 06:43:08 06:45:31 14° 273° (W) 06:47:54 437.345
HORYU 2 13 Feb 06:44:42 06:47:06 15° 304° (NW) 06:49:31 437.375
AO-7 13 Feb 06:45:50 06:52:29 28° 314° (NW) 06:59:08 29.400- 29.500
CUTE-I 13 Feb 06:46:56 06:52:20 68° 103° (ESE) 06:57:41 437.470
GOMX 1 13 Feb 07:00:19 07:04:06 28° 93° (E) 07:07:44 467.674
Cubesat XI-IV 13 Feb 07:01:52 07:07:19 88° 105° (ESE) 07:12:43 437.490
Cosmos 2504 13 Feb 07:03:34 07:10:57 29° 301° (WNW) 07:18:27 435.465 / 435.565
HO-68 13 Feb 07:04:37 07:08:22 15° 84° (E) 07:12:06 435.675
STRAND 1 13 Feb 07:13:14 07:18:05 43° 262° (W) 07:23:00 437.568
GONETS M04 13 Feb 07:29:02 07:35:45 26° 78° (ENE) 07:42:31
O/OREOS (USA 219) 13 Feb 07:30:12 07:34:31 49° 110° (ESE) 07:38:54 437.305
CUTE 1.7 + AOD 2 13 Feb 07:38:16 07:40:56 16° 89° (E) 07:43:37 437.475
SEEDS 13 Feb 07:38:38 07:40:26 12° 87° (E) 07:42:13 437.485
BRITE-PL 13 Feb 07:51:40 07:56:18 51° 291° (WNW) 08:00:34 437.365/2234.400
LilacSat-2 13 Feb 07:53:21 07:56:25 24° 295° (WNW) 07:59:30 437.200
DOVE 4 13 Feb 08:00:04 08:04:16 56° 100° (E) 08:08:20 437.250
Cosmos 2499 13 Feb 08:08:08 08:14:18 22° 75° (ENE) 08:20:28 435.465 / 435.565
CUBEBUG 2 13 Feb 08:10:22 08:11:01 10° 86° (E) 08:11:42 437.445
PRISM 13 Feb 08:11:52 08:15:29 28° 265° (W) 08:19:09 437.425
SO-50 13 Feb 08:22:41 08:25:26 15° 353° (N) 08:28:10 436.795
CANX-2 13 Feb 08:23:00 08:27:10 47° 99° (E) 08:31:19 2200.000
AO-85 13 Feb 08:23:38 08:24:39 10° 104° (ESE) 08:25:40 145.980
CINEMA 3 13 Feb 08:26:34 08:30:27 37° 97° (E) 08:34:22 145.822/145.860
CUTE-I 13 Feb 08:27:47 08:31:55 23° 302° (WNW) 08:36:02 437.470
UNISAT 6 13 Feb 08:36:52 08:39:52 19° 61° (ENE) 08:42:53 437.425
GOMX 1 13 Feb 08:38:18 08:42:19 34° 294° (WNW) 08:46:09 467.674
AO-7 13 Feb 08:41:10 08:42:29 10° 339° (NNW) 08:43:48 29.400- 29.500
Cubesat XI-IV 13 Feb 08:43:07 08:46:43 18° 305° (NW) 08:50:18 437.490
ZACube-1 13 Feb 08:47:07 08:49:16 14° 88° (E) 08:51:26 437.345
HO-68 13 Feb 08:50:13 08:57:27 70° 105° (ESE) 09:04:36 435.675
COMPASS 1 13 Feb 08:51:22 08:55:29 48° 99° (E) 08:59:34 437.405
FUNcube-1 13 Feb 08:53:52 08:56:21 15° 89° (E) 08:58:53 145.935
AIST 1 13 Feb 09:08:07 09:09:35 12° 81° (E) 09:11:04
O/OREOS (USA 219) 13 Feb 09:10:23 09:14:10 26° 311° (NW) 09:18:00 437.305
PCSat 13 Feb 09:12:15 09:15:19 15° 104° (ESE) 09:18:24 145.827
SEEDS 13 Feb 09:12:26 09:16:44 80° 284° (WNW) 09:21:00 437.485
CUTE 1.7 + AOD 2 13 Feb 09:12:57 09:17:13 62° 287° (WNW) 09:21:27 437.475
AAUSAT CUBESAT 2 13 Feb 09:16:15 09:20:29 72° 101° (E) 09:24:41 437.432
Oscar 11 13 Feb 09:19:59 09:24:00 35° 97° (E) 09:28:00 145.826/435.025
ANTELSAT 13 Feb 09:20:29 09:24:34 45° 69° (ENE) 09:28:39 437.575/2403.000
GONETS M04 13 Feb 09:22:54 09:31:36 82° 280° (W) 09:40:25
TIGRISAT 13 Feb 09:25:58 09:30:06 49° 70° (ENE) 09:34:13 435.000
UWE-3 13 Feb 09:36:36 09:40:46 56° 101° (E) 09:45:00 435.000/436.395/437.385
DOVE 4 13 Feb 09:38:43 09:41:36 18° 300° (WNW) 09:44:26 437.250
POLYITAN 1 13 Feb 09:39:39 09:42:51 21° 62° (ENE) 09:46:03 437.675
QB50P2 13 Feb 09:40:02 09:43:17 22° 62° (ENE) 09:46:33 145.880/145.840
RS-15 13 Feb 09:42:24 09:50:24 23° 99° (E) 09:58:38 29.354- 29.394
CUBEBUG 2 13 Feb 09:44:05 09:48:18 89° 106° (ESE) 09:52:36 437.445
Cosmos 2499 13 Feb 09:57:18 10:06:08 82° 97° (E) 10:15:01 435.465 / 435.565
AO-85 13 Feb 09:58:47 10:04:05 58° 123° (ESE) 10:09:30 145.980
CANX-2 13 Feb 09:59:28 10:02:46 22° 297° (WNW) 10:06:05 2200.000
DELFI C3 13 Feb 09:59:43 10:03:41 49° 100° (E) 10:07:37 145.870
CINEMA 3 13 Feb 10:04:06 10:07:29 25° 296° (WNW) 10:10:54 145.822/145.860
SO-50 13 Feb 10:04:33 10:07:50 17° 17° (NNE) 10:11:05 436.795
HUMSAT D 13 Feb 10:07:22 10:10:58 27° 95° (E) 10:14:34 437.325/437.525
POPSAT HIP 1 13 Feb 10:07:59 10:11:52 37° 67° (ENE) 10:15:46 437.405
DUCHIFAT 1 13 Feb 10:09:52 10:13:43 36° 67° (ENE) 10:17:34 145.980
NANOSAT C BR1 13 Feb 10:10:10 10:14:03 38° 68° (ENE) 10:17:58 145.865
UNISAT 6 13 Feb 10:12:02 10:16:15 56° 259° (W) 10:20:28 437.425
QB50P1 13 Feb 10:20:01 10:24:05 48° 70° (ENE) 10:28:10 145.935-145.965
ZACube-1 13 Feb 10:21:50 10:26:04 72° 286° (WNW) 10:30:20 437.345
DANDE 13 Feb 10:23:38 10:25:20 11° 38° (NE) 10:26:57 436.750
COMPASS 1 13 Feb 10:27:34 10:30:47 21° 297° (WNW) 10:34:00 437.405
FUNcube-1 13 Feb 10:28:51 10:33:03 64° 287° (WNW) 10:37:18 145.935
